Location: Newark
(39.9581°N, 97.2014°W)
Time: 01:16:24
(UTC+00:00)

Transit 2A - All Passes

Search period start: 29 February 2020 00:00
Search period end: 10 March 2020 00:00
Orbit: 599 x 959 km, 66.7° (Epoch: 28 February)

Date Brightness Start Highest point End Pass type
(mag) Time Alt. Az. Time Alt. Az. Time Alt. Az.
29 Feb - 01:58:55 10° N 02:03:26 29° NE 02:08:19 10° ESE visible
29 Feb - 03:41:42 10° NW 03:46:43 42° WSW 03:52:10 10° S visible
29 Feb - 16:40:07 10° SSE 16:43:14 20° ESE 16:46:24 10° ENE daylight
29 Feb - 18:22:03 10° WSW 18:26:04 36° NW 18:30:12 10° NNE daylight
01 Mar - 01:25:11 10° N 01:29:07 21° NE 01:33:20 10° E visible
01 Mar - 03:07:24 10° NW 03:12:38 63° WSW 03:18:24 10° SSE visible
01 Mar - 16:07:37 10° SE 16:09:19 12° ESE 16:11:03 10° E daylight
01 Mar - 17:47:36 10° SW 17:51:51 57° WNW 17:56:14 10° NNE daylight
02 Mar - 00:51:40 10° N 00:54:45 16° NE 00:58:00 10° E visible
02 Mar - 02:33:13 10° NNW 02:38:31 90° WNW 02:44:23 10° SSE visible
02 Mar - 04:19:06 10° W 04:21:08 12° WSW 04:23:13 10° SW visible
02 Mar - 17:13:23 10° SSW 17:17:43 89° E 17:22:10 10° NNE daylight
02 Mar - 19:00:06 10° WNW 19:01:35 11° NW 19:03:06 10° NNW daylight
03 Mar - 00:18:39 10° NNE 00:20:18 11° NE 00:21:59 10° ENE daylight
03 Mar - 01:59:08 10° NNW 02:04:22 63° ENE 02:10:09 10° SE visible
03 Mar - 03:43:30 10° WNW 03:47:12 18° WSW 03:51:04 10° SSW visible
03 Mar - 16:39:25 10° SSW 16:43:37 55° ESE 16:47:57 10° NE daylight
03 Mar - 18:24:23 10° W 18:27:09 16° NW 18:30:00 10° N daylight
04 Mar - 01:25:09 10° NNW 01:30:11 44° NE 01:35:42 10° SE visible
04 Mar - 03:08:41 10° NW 03:13:12 27° WSW 03:18:03 10° SSW visible
04 Mar - 16:05:42 10° S 16:09:36 34° ESE 16:13:35 10° NE daylight
04 Mar - 17:49:18 10° WSW 17:52:47 23° NW 17:56:24 10° N daylight
05 Mar - 00:51:16 10° N 00:55:56 32° NE 01:01:01 10° ESE visible
05 Mar - 02:34:11 10° NW 02:39:10 39° WSW 02:44:37 10° S visible
05 Mar - 15:32:19 10° SSE 15:35:37 22° ESE 15:38:58 10° ENE daylight
05 Mar - 17:14:33 10° WSW 17:18:30 34° NW 17:22:36 10° NNE daylight
06 Mar - 00:17:30 10° N 00:21:38 23° NE 00:26:05 10° E daylight
06 Mar - 01:59:50 10° NW 02:05:07 58° WSW 02:10:53 10° SSE visible
06 Mar - 14:59:34 10° SE 15:01:42 14° ESE 15:03:52 10° ENE daylight
06 Mar - 16:40:04 10° SW 16:44:17 52° WNW 16:48:40 10° NNE daylight
06 Mar - 23:43:53 10° N 23:47:17 17° NE 23:50:51 10° E daylight
07 Mar - 01:25:38 10° NNW 01:31:00 84° WSW 01:36:55 10° SSE visible
07 Mar - 03:12:02 10° W 03:13:33 11° WSW 03:15:07 10° WSW visible
07 Mar - 16:05:48 10° SSW 16:10:07 83° WNW 16:14:37 10° NNE daylight
07 Mar - 17:52:59 10° NW 17:54:05 11° NW 17:55:12 10° NNW daylight
07 Mar - 23:10:39 10° NNE 23:12:50 12° NE 23:15:06 10° ENE daylight
08 Mar - 00:51:32 10° NNW 00:56:52 69° ENE 01:02:43 10° SE visible
08 Mar - 02:36:07 10° WNW 02:39:37 17° WSW 02:43:19 10° SW visible
08 Mar - 15:31:46 10° SSW 15:36:01 62° ESE 15:40:25 10° NE daylight
08 Mar - 17:17:01 10° W 17:19:39 15° NW 17:22:20 10° N daylight
09 Mar - 00:17:32 10° NNW 00:22:40 48° ENE 00:28:19 10° SE daylight
09 Mar - 02:01:13 10° NW 02:05:39 25° WSW 02:10:24 10° SSW visible
09 Mar - 14:58:00 10° S 15:01:59 38° ESE 15:06:06 10° NE daylight
09 Mar - 16:41:52 10° W 16:45:15 22° NW 16:48:46 10° N daylight
09 Mar - 23:43:37 10° NNW 23:48:26 34° NE 23:53:42 10° ESE daylight
